Simultaneous Nadir Overpasses (SNOs) Predictions

Prediction of SNOs between AQUA and NPP Satellite Orbit:

Table of predicted SNOs for the next 14.0 days since TLE Epoch: 1/21/2023
Index Date (AQUA) Time (AQUA) Lat,Lon (AQUA) SZA (AQUA ) Date (NPP) Time (NPP) Lat,Lon (NPP) SZA (NPP ) Distance(km) Time Diff (sec)
1 01/23/2023 08:47:55 -79.32, 124.13 67.77 01/23/2023 08:47:40 -79.32, 124.05 67.75 1.68 15
2 01/23/2023 09:37:11 79.66, -65.87 111.74 01/23/2023 09:38:14 79.66, -65.83 111.68 0.81 63
3 01/25/2023 23:24:15 -79.20, -95.70 68.20 01/25/2023 23:23:10 -79.20, -95.68 68.15 0.44 65
4 01/26/2023 00:13:31 79.54, 74.24 111.31 01/26/2023 00:13:44 79.55, 74.37 111.28 2.74 13
5 01/28/2023 14:49:52 79.33,-146.30 110.99 01/28/2023 14:49:17 79.33,-146.27 111.01 0.52 35
6 01/28/2023 15:39:12 -79.56, 22.94 69.36 01/28/2023 15:39:56 -79.55, 22.84 69.37 2.06 44
7 01/31/2023 06:15:30 -79.40, 162.79 69.81 01/31/2023 06:15:27 -79.39, 162.70 69.79 1.92 3
8 01/31/2023 07:03:52 81.27, -9.45 106.74 01/31/2023 07:05:05 81.02, -8.71 106.55 30.67 73
9 02/02/2023 20:51:45 -79.29, -56.95 70.37 02/02/2023 20:50:56 -79.29, -56.93 70.34 0.43 49



Historial Predications of SNOs between AQUA and NPP
